GSAT0204 (PRN E22)

Last updated on June 27, 2019, 3:44 a.m. UTC

1 40545U 15017B   19176.87110576 -.00000070  00000-0  00000+0 0  9998
2 40545  56.1830  51.3423 0000779 132.0023 228.0603  1.70475239 26428
UTC
Height (km)
Latitude
Longitude
Inclination
Orbital Period
UTC large
Height (km)
Speed (km/s)
/
Latitude / Longitude
Inclination (degrees)
Orbital Period (minutes)
Azimuth
Elevation
Range (km)
Doppler Factor
iOS Compass Heading
iOS Angle

Next 30 passes for location: Hong Kong

Rise time Rise Azimuth (degrees) Set time Set Azimuth (degrees) Duration Max altitude (degrees)

No matching passes for this satellites